�������l�o���
Date,Time,MP-1(��Sv/h),MP-2(��Sv/h),MP-3(��Sv/h),MP-4(��Sv/h),MP-5(��Sv/h),MP-6(��Sv/h),MP-7(��Sv/h),MP-8(��Sv/h),����,����(m/s),���J
2021/03/05,00:00,0.642,0.932,0.593,1.161,0.829,0.371,0.658,0.617,��,6.7,��
2021/03/05,00:10,0.641,0.932,0.594,1.164,0.826,0.370,0.658,0.617,��쐼,7.0,��
2021/03/05,00:20,0.640,0.933,0.591,1.165,0.828,0.373,0.658,0.619,��쐼,6.6,��
2021/03/05,00:30,0.641,0.934,0.593,1.163,0.827,0.371,0.658,0.619,��,7.5,��
2021/03/05,00:40,0.639,0.933,0.593,1.164,0.828,0.372,0.660,0.617,��쐼,7.4,��
2021/03/05,00:50,0.642,0.934,0.593,1.162,0.827,0.371,0.658,0.616,��쐼,7.6,��
2021/03/05,01:00,0.642,0.934,0.596,1.164,0.829,0.372,0.658,0.617,��,6.5,��
2021/03/05,01:10,0.640,0.931,0.592,1.165,0.828,0.372,0.658,0.617,��,5.3,��
2021/03/05,01:20,0.640,0.931,0.593,1.164,0.828,0.371,0.658,0.618,��,6.7,��
2021/03/05,01:30,0.641,0.932,0.592,1.163,0.828,0.373,0.660,0.616,��,7.8,��
2021/03/05,01:40,0.642,0.933,0.593,1.165,0.826,0.372,0.660,0.617,��,8.3,��
2021/03/05,01:50,0.641,0.933,0.594,1.164,0.828,0.371,0.660,0.618,��쐼,7.3,��
2021/03/05,02:00,0.640,0.933,0.592,1.163,0.826,0.372,0.659,0.617,��쐼,5.1,��
2021/03/05,02:10,0.640,0.932,0.594,1.165,0.829,0.371,0.659,0.615,��,2.6,��
2021/03/05,02:20,0.640,0.934,0.594,1.165,0.828,0.372,0.659,0.618,��쐼,3.5,��
2021/03/05,02:30,0.641,0.932,0.592,1.164,0.827,0.374,0.658,0.618,��,3.9,��
2021/03/05,02:40,0.640,0.933,0.593,1.166,0.828,0.371,0.659,0.618,��쐼,3.5,��
2021/03/05,02:50,0.639,0.934,0.593,1.162,0.826,0.372,0.659,0.617,��쐼,5.7,��
2021/03/05,03:00,0.641,0.933,0.594,1.164,0.827,0.371,0.659,0.616,��쐼,4.0,��
2021/03/05,03:10,0.641,0.932,0.593,1.163,0.826,0.373,0.658,0.617,��쐼,3.2,��
2021/03/05,03:20,0.640,0.935,0.593,1.162,0.828,0.373,0.659,0.616,��,3.1,��
2021/03/05,03:30,0.641,0.935,0.594,1.164,0.827,0.372,0.659,0.619,��쐼,2.9,��
2021/03/05,03:40,0.642,0.931,0.594,1.163,0.827,0.372,0.657,0.619,��쐼,3.8,��
2021/03/05,03:50,0.642,0.933,0.591,1.165,0.826,0.372,0.660,0.617,��,4.3,��
2021/03/05,04:00,0.641,0.933,0.593,1.165,0.825,0.371,0.660,0.616,��쐼,4.7,��
2021/03/05,04:10,0.641,0.932,0.593,1.164,0.826,0.372,0.659,0.618,��쐼,4.7,��
2021/03/05,04:20,0.640,0.932,0.593,1.164,0.827,0.371,0.660,0.617,��,4.1,��
2021/03/05,04:30,0.641,0.934,0.594,1.166,0.827,0.372,0.659,0.618,��,6.7,��
2021/03/05,04:40,0.640,0.934,0.592,1.166,0.828,0.372,0.658,0.618,��,7.9,��
2021/03/05,04:50,0.641,0.933,0.593,1.164,0.829,0.372,0.659,0.618,��,8.2,��
2021/03/05,05:00,0.642,0.932,0.594,1.165,0.826,0.373,0.659,0.619,��,8.6,��
2021/03/05,05:10,0.642,0.934,0.593,1.162,0.828,0.372,0.660,0.618,��,7.1,��
2021/03/05,05:20,0.642,0.934,0.593,1.164,0.827,0.372,0.660,0.617,��쐼,8.0,��
2021/03/05,05:30,0.640,0.933,0.592,1.164,0.827,0.371,0.657,0.617,��쐼,8.8,��
2021/03/05,05:40,0.641,0.933,0.593,1.163,0.827,0.371,0.658,0.617,��쐼,7.8,��
2021/03/05,05:50,0.640,0.934,0.592,1.164,0.827,0.371,0.658,0.616,��쐼,7.5,��
2021/03/05,06:00,0.640,0.932,0.594,1.165,0.827,0.372,0.660,0.617,��쐼,5.9,��
2021/03/05,06:10,0.640,0.933,0.592,1.164,0.828,0.372,0.659,0.617,��쐼,6.1,��
2021/03/05,06:20,0.639,0.932,0.595,1.162,0.829,0.371,0.658,0.617,��쐼,6.8,��
2021/03/05,06:30,0.640,0.932,0.593,1.165,0.829,0.372,0.658,0.617,��쐼,7.1,��
2021/03/05,06:40,0.640,0.934,0.594,1.165,0.827,0.371,0.660,0.618,��쐼,7.3,��
2021/03/05,06:50,0.641,0.933,0.593,1.164,0.827,0.371,0.659,0.618,��쐼,6.3,��
2021/03/05,07:00,0.640,0.934,0.593,1.163,0.830,0.371,0.660,0.617,��,6.4,��
2021/03/05,07:10,0.641,0.934,0.594,1.163,0.829,0.372,0.658,0.617,��,6.1,��
2021/03/05,07:20,0.641,0.933,0.592,1.164,0.826,0.373,0.659,0.617,��,7.1,��
2021/03/05,07:30,0.641,0.933,0.594,1.163,0.830,0.370,0.658,0.617,��,7.7,��
2021/03/05,07:40,0.641,0.934,0.595,1.165,0.829,0.371,0.661,0.618,��,7.1,��
2021/03/05,07:50,0.642,0.931,0.592,1.164,0.826,0.372,0.659,0.619,��쐼,6.4,��
2021/03/05,08:00,0.643,0.933,0.596,1.163,0.829,0.371,0.660,0.617,��,5.2,��
2021/03/05,08:10,0.641,0.936,0.594,1.165,0.828,0.371,0.662,0.617,��쐼,4.6,��
2021/03/05,08:20,0.644,0.935,0.593,1.165,0.827,0.372,0.660,0.619,��쐼,4.9,��
2021/03/05,08:30,0.642,0.933,0.594,1.166,0.828,0.372,0.661,0.618,��,2.6,��
2021/03/05,08:40,0.643,0.933,0.592,1.166,0.826,0.372,0.660,0.617,��,4.6,��
2021/03/05,08:50,0.644,0.930,0.593,1.166,0.829,0.375,0.659,0.618,��,6.6,��
2021/03/05,09:00,0.644,0.932,0.593,1.167,0.829,0.373,0.658,0.619,��,5.7,��
2021/03/05,09:10,0.642,0.934,0.595,1.165,0.830,0.373,0.658,0.619,��,4.4,��
2021/03/05,09:20,0.643,0.931,0.594,1.166,0.829,0.373,0.659,0.618,��,6.0,��
2021/03/05,09:30,0.643,0.930,0.595,1.163,0.830,0.373,0.659,0.619,��,4.8,��
2021/03/05,09:40,0.644,0.931,0.594,1.166,0.829,0.373,0.658,0.617,��쓌,8.0,��
2021/03/05,09:50,0.641,0.930,0.595,1.166,0.830,0.374,0.659,0.620,��쓌,9.5,��
2021/03/05,10:00,0.641,0.930,0.594,1.165,0.829,0.373,0.657,0.620,��쓌,10.5,��
2021/03/05,10:10,0.642,0.931,0.595,1.168,0.831,0.373,0.659,0.617,��쓌,11.3,��
2021/03/05,10:20,0.642,0.932,0.596,1.167,0.829,0.372,0.659,0.616,��쓌,10.8,��
2021/03/05,10:30,0.641,0.932,0.595,1.165,0.828,0.373,0.658,0.615,��쓌,12.4,��
2021/03/05,10:40,0.639,0.935,0.595,1.167,0.830,0.371,0.660,0.617,��쓌,10.7,��
2021/03/05,10:50,0.641,0.934,0.592,1.166,0.828,0.372,0.658,0.617,��쓌,12.4,��
2021/03/05,11:00,0.641,0.932,0.594,1.166,0.827,0.370,0.659,0.617,��,11.6,��
2021/03/05,11:10,0.638,0.935,0.593,1.168,0.827,0.371,0.660,0.616,��쓌,12.7,��
2021/03/05,11:20,0.637,0.934,0.592,1.168,0.829,0.371,0.659,0.616,��쓌,14.7,��
2021/03/05,11:30,0.641,0.932,0.594,1.166,0.828,0.371,0.661,0.615,��쓌,11.4,��
2021/03/05,11:40,0.641,0.931,0.592,1.166,0.830,0.372,0.660,0.615,��쓌,12.8,��
2021/03/05,11:50,0.640,0.936,0.594,1.165,0.830,0.373,0.660,0.615,��쓌,12.5,��
2021/03/05,12:00,0.640,0.936,0.594,1.167,0.829,0.373,0.660,0.616,��쓌,11.7,��
2021/03/05,12:10,0.639,0.937,0.594,1.169,0.829,0.371,0.660,0.616,��쓌,12.5,��
2021/03/05,12:20,0.639,0.934,0.595,1.168,0.830,0.372,0.662,0.616,��쓌,13.9,��
2021/03/05,12:30,0.640,0.936,0.595,1.167,0.829,0.373,0.660,0.616,��쓌,13.1,��
2021/03/05,12:40,0.640,0.938,0.594,1.167,0.829,0.373,0.661,0.616,��쓌,11.7,��
2021/03/05,12:50,0.640,0.939,0.593,1.167,0.831,0.375,0.660,0.616,��쓌,13.3,��
2021/03/05,13:00,0.641,0.935,0.595,1.171,0.830,0.374,0.659,0.616,��쓌,13.0,��
2021/03/05,13:10,0.641,0.935,0.596,1.170,0.832,0.376,0.660,0.617,��쓌,11.9,��
2021/03/05,13:20,0.645,0.936,0.593,1.171,0.832,0.374,0.661,0.616,��쓌,12.7,��
2021/03/05,13:30,0.642,0.936,0.593,1.170,0.829,0.376,0.661,0.615,��쓌,12.5,��
2021/03/05,13:40,0.643,0.935,0.594,1.169,0.832,0.375,0.661,0.616,��쓌,11.6,��
2021/03/05,13:50,0.641,0.935,0.596,1.170,0.832,0.375,0.661,0.617,��쓌,12.7,��
2021/03/05,14:00,0.642,0.936,0.594,1.168,0.830,0.375,0.663,0.617,��쓌,12.2,��
2021/03/05,14:10,0.644,0.935,0.594,1.170,0.833,0.374,0.660,0.616,��,9.6,��
2021/03/05,14:20,0.643,0.936,0.594,1.169,0.832,0.374,0.661,0.615,��,11.0,��
2021/03/05,14:30,0.642,0.934,0.592,1.171,0.833,0.374,0.659,0.618,��,9.5,��
2021/03/05,14:40,0.641,0.937,0.596,1.171,0.831,0.374,0.659,0.616,��,9.9,��
2021/03/05,14:50,0.643,0.934,0.595,1.171,0.831,0.375,0.660,0.618,��,8.3,��
2021/03/05,15:00,0.640,0.934,0.594,1.171,0.831,0.375,0.660,0.616,��쓌,7.6,��
2021/03/05,15:10,0.643,0.936,0.595,1.170,0.832,0.374,0.661,0.616,��쓌,9.2,��
2021/03/05,15:20,0.642,0.938,0.595,1.170,0.832,0.374,0.661,0.616,��,8.8,��
2021/03/05,15:30,0.640,0.937,0.596,1.169,0.833,0.374,0.660,0.616,��,9.2,��
2021/03/05,15:40,0.642,0.937,0.597,1.170,0.833,0.375,0.660,0.617,��쓌,7.9,��
2021/03/05,15:50,0.643,0.938,0.595,1.173,0.832,0.375,0.661,0.618,��,7.5,��
2021/03/05,16:00,0.644,0.939,0.597,1.170,0.831,0.374,0.661,0.618,��,7.9,��
2021/03/05,16:10,0.645,0.940,0.599,1.170,0.832,0.374,0.659,0.617,��,8.5,��
2021/03/05,16:20,0.644,0.941,0.598,1.171,0.832,0.374,0.660,0.618,��,7.2,��
2021/03/05,16:30,0.646,0.937,0.598,1.170,0.832,0.376,0.659,0.616,��,8.0,��
2021/03/05,16:40,0.645,0.939,0.598,1.170,0.833,0.376,0.659,0.619,��,7.2,��
2021/03/05,16:50,0.645,0.940,0.599,1.172,0.833,0.375,0.661,0.619,��,7.4,��
2021/03/05,17:00,0.645,0.941,0.598,1.171,0.834,0.374,0.660,0.618,��,8.1,��
2021/03/05,17:10,0.647,0.941,0.597,1.170,0.833,0.376,0.659,0.619,��,7.1,��
2021/03/05,17:20,0.646,0.942,0.597,1.172,0.834,0.375,0.659,0.619,��,7.2,��
2021/03/05,17:30,0.646,0.941,0.597,1.171,0.836,0.376,0.661,0.619,��,6.7,��
2021/03/05,17:40,0.644,0.940,0.598,1.169,0.836,0.377,0.660,0.619,��,6.7,��
2021/03/05,17:50,0.646,0.942,0.599,1.170,0.835,0.376,0.661,0.620,��,7.6,��
2021/03/05,18:00,0.647,0.941,0.597,1.171,0.836,0.376,0.661,0.619,��,6.9,��
2021/03/05,18:10,0.645,0.941,0.597,1.171,0.836,0.375,0.663,0.619,��,8.0,��
2021/03/05,18:20,0.646,0.939,0.597,1.172,0.835,0.374,0.662,0.621,��쐼,8.6,��
2021/03/05,18:30,0.647,0.939,0.596,1.172,0.835,0.373,0.662,0.621,��쐼,8.5,��
2021/03/05,18:40,0.644,0.943,0.596,1.171,0.837,0.375,0.661,0.620,��,8.1,��
2021/03/05,18:50,0.644,0.942,0.597,1.170,0.835,0.374,0.661,0.620,��,7.1,��
2021/03/05,19:00,0.647,0.942,0.596,1.170,0.835,0.375,0.661,0.621,��,7.0,��
2021/03/05,19:10,0.645,0.941,0.599,1.172,0.837,0.375,0.660,0.620,��,8.5,��
2021/03/05,19:20,0.647,0.939,0.599,1.173,0.837,0.374,0.662,0.619,��,7.7,��
2021/03/05,19:30,0.645,0.942,0.597,1.171,0.836,0.375,0.663,0.620,��,8.0,��
2021/03/05,19:40,0.646,0.940,0.597,1.170,0.837,0.375,0.661,0.620,��,7.6,��
2021/03/05,19:50,0.645,0.942,0.595,1.171,0.837,0.374,0.661,0.621,��,6.8,��
2021/03/05,20:00,0.646,0.942,0.597,1.170,0.837,0.375,0.663,0.620,��,5.7,��
2021/03/05,20:10,0.645,0.944,0.596,1.173,0.837,0.374,0.662,0.622,��쐼,3.8,��
2021/03/05,20:20,0.645,0.943,0.598,1.171,0.836,0.376,0.660,0.619,��쐼,4.0,��
2021/03/05,20:30,0.645,0.942,0.597,1.170,0.837,0.375,0.663,0.620,��쐼,4.3,�L
2021/03/05,20:40,0.645,0.941,0.597,1.170,0.838,0.373,0.663,0.620,��쐼,4.3,�L
2021/03/05,20:50,0.647,0.940,0.597,1.171,0.837,0.375,0.662,0.620,��쐼,4.8,�L
2021/03/05,21:00,0.646,0.941,0.597,1.172,0.835,0.375,0.663,0.620,��쐼,4.5,�L
2021/03/05,21:10,0.644,0.941,0.598,1.170,0.836,0.375,0.663,0.620,��쐼,4.1,�L
2021/03/05,21:20,0.648,0.941,0.598,1.169,0.836,0.374,0.663,0.620,��쐼,3.5,�L
2021/03/05,21:30,0.645,0.942,0.597,1.168,0.836,0.374,0.661,0.622,��쐼,4.0,�L
2021/03/05,21:40,0.646,0.943,0.598,1.172,0.837,0.375,0.662,0.620,��,4.8,�L
2021/03/05,21:50,0.646,0.941,0.596,1.170,0.835,0.374,0.661,0.618,��,5.4,��
2021/03/05,22:00,0.646,0.940,0.596,1.170,0.837,0.374,0.662,0.621,��,5.9,��
2021/03/05,22:10,0.644,0.943,0.597,1.169,0.836,0.374,0.662,0.620,��쐼,6.0,��
2021/03/05,22:20,0.644,0.940,0.598,1.170,0.836,0.374,0.661,0.618,��쐼,6.5,��
2021/03/05,22:30,0.647,0.942,0.597,1.169,0.836,0.374,0.663,0.620,��,6.3,��
2021/03/05,22:40,0.646,0.941,0.599,1.172,0.836,0.374,0.662,0.621,��쐼,5.7,�L
2021/03/05,22:50,0.646,0.939,0.597,1.170,0.835,0.375,0.664,0.619,��쐼,5.1,�L
2021/03/05,23:00,0.646,0.939,0.597,1.168,0.836,0.376,0.662,0.619,��,5.5,��
2021/03/05,23:10,0.646,0.943,0.598,1.170,0.834,0.374,0.662,0.620,��,6.2,��
2021/03/05,23:20,0.646,0.941,0.597,1.172,0.836,0.374,0.663,0.621,��쐼,5.4,�L
2021/03/05,23:30,0.647,0.940,0.600,1.172,0.835,0.374,0.662,0.619,�쐼,5.7,�L
2021/03/05,23:40,0.644,0.939,0.599,1.171,0.836,0.376,0.660,0.619,�쐼,5.9,��
2021/03/05,23:50,0.647,0.940,0.599,1.173,0.836,0.375,0.661,0.620,�쐼,5.5,��
